Tehachapi, CA

2:35 AM PST on December 06, 2019 (GMT -0800)
Tehachapi Municipal

Weather History for KTSP - October, 2019

Change the Weather History Date:

Sunday, October 27, 2019

  Actual Average Record
Temperature  
Mean Temperature 50 °F -  
Max Temperature 62 °F 66 °F 82 °F (2017)
Min Temperature 39 °F 40 °F 35 °F (2011)
Degree Days  
Heating Degree Days 14    
Moisture  
Dew Point 27 °F    
Average Humidity 38    
Maximum Humidity 56    
Minimum Humidity 16    
Precipitation  
Precipitation 0.00 in - - ()
Sea Level Pressure  
Sea Level Pressure 29.86 in    
Wind  
Wind Speed 8 mph ()    
Max Wind Speed 20 mph    
Max Gust Speed 25 mph    
Visibility 7.1 miles    
Events      
Averages and records for this station are not official NWS values.
T = Trace of Precipitation, MM = Missing Value Source: Averaged Metar Reports

Daily Weather History Graph

Daily Weather History Graph

Search for Another Location

Airport or City:

Astronomy

Oct. 27, 2019 Rise Set
Actual Time 7:10 AM PDT 6:04 PM PDT
Civil Twilight 6:44 AM PDT 6:30 PM PDT
Nautical Twilight 6:14 AM PDT 7:00 PM PDT
Astronomical Twilight 5:44 AM PDT 7:29 PM PDT
Moon 6:28 AM PDT (10/27) 6:14 PM PDT (10/27)
Length of Visible Light 11h 46m
Length of Day
10h 54m
Waning Crescent, 0% of the Moon is Illuminated
Oct 27
Waning Crescent
Oct 27
New
Nov 4
First Quarter
Nov 12
Full
Nov 19
Last Quarter

Hourly Weather History & Observations

Time (PDT) Temp. Windchill Dew Point Humidity Pressure Visibility Wind Dir Wind Speed Gust Speed Precip Events Conditions
12:15 AM 50.0 °F - 26.6 °F 40% 29.84 in 10.0 mi WNW 4.6 mph - N/A   Clear
12:35 AM 48.2 °F - 24.8 °F 40% 29.84 in 10.0 mi WNW 4.6 mph - N/A   Clear
12:55 AM 50.0 °F - 26.6 °F 40% 29.83 in 10.0 mi WSW 3.5 mph - N/A   Clear
1:15 AM 53.6 °F - 28.4 °F 38% 29.83 in 10.0 mi WSW 3.5 mph - N/A   Clear
1:35 AM 50.0 °F - 28.4 °F 43% 29.83 in 10.0 mi West 4.6 mph - N/A   Clear
1:55 AM 50.0 °F - 28.4 °F 43% 29.82 in 10.0 mi NW 8.1 mph - N/A   Partly Cloudy
2:15 AM 53.6 °F - 28.4 °F 38% 29.82 in 10.0 mi NW 10.4 mph - N/A   Clear
2:35 AM 55.4 °F - 28.4 °F 36% 29.81 in 10.0 mi NW 9.2 mph - N/A   Clear
2:55 AM 55.4 °F - 28.4 °F 36% 29.80 in 10.0 mi NNW 12.7 mph 17.3 mph N/A   Clear
3:15 AM 53.6 °F - 28.4 °F 38% 29.79 in 10.0 mi NW 11.5 mph - N/A   Clear
3:35 AM 55.4 °F - 28.4 °F 36% 29.79 in 10.0 mi WNW 12.7 mph - N/A   Clear
3:55 AM 55.4 °F - 28.4 °F 36% 29.78 in 10.0 mi WNW 12.7 mph - N/A   Clear
4:15 AM 55.4 °F - 28.4 °F 36% 29.77 in 10.0 mi NW 12.7 mph - N/A   Clear
4:35 AM 55.4 °F - 28.4 °F 36% 29.77 in 10.0 mi WNW 10.4 mph - N/A   Clear
5:15 AM 55.4 °F - 30.2 °F 38% 29.76 in 10.0 mi WNW 11.5 mph - N/A   Clear
5:35 AM 53.6 °F - 30.2 °F 41% 29.77 in 10.0 mi WNW 13.8 mph - N/A   Clear
5:55 AM 55.4 °F - 30.2 °F 38% 29.77 in 10.0 mi WNW 12.7 mph - N/A   Partly Cloudy
6:15 AM 53.6 °F - 30.2 °F 41% 29.77 in 10.0 mi WNW 13.8 mph - N/A   Partly Cloudy
6:35 AM 53.6 °F - 30.2 °F 41% 29.77 in 10.0 mi NW 13.8 mph - N/A   Clear
6:55 AM 53.6 °F - 30.2 °F 41% 29.78 in 10.0 mi NW 12.7 mph - N/A   Clear
7:15 AM 53.6 °F - 30.2 °F 41% 29.78 in 7.0 mi WNW 12.7 mph - N/A   Clear
7:35 AM 53.6 °F - 28.4 °F 38% 29.80 in 7.0 mi West 15.0 mph 23.0 mph N/A   Clear
7:55 AM 51.8 °F - 28.4 °F 41% 29.81 in 9.0 mi West 15.0 mph 19.6 mph N/A   Clear
8:35 AM 51.8 °F - 32.0 °F 47% 29.82 in 6.0 mi SW 13.8 mph 19.6 mph N/A   Haze
8:55 AM 51.8 °F - 35.6 °F 54% 29.83 in 5.0 mi WSW 12.7 mph - N/A   Haze
9:15 AM 53.6 °F - 35.6 °F 51% 29.83 in 6.0 mi West 10.4 mph - N/A   Haze
9:35 AM 53.6 °F - 33.8 °F 47% 29.84 in 5.0 mi WNW 4.6 mph - N/A   Haze
9:55 AM 53.6 °F - 35.6 °F 51% 29.84 in 6.0 mi SW 5.8 mph - N/A   Haze
10:15 AM 55.4 °F - 35.6 °F 47% 29.85 in 7.0 mi WSW 6.9 mph - N/A   Clear
10:35 AM 57.2 °F - 33.8 °F 41% 29.85 in 7.0 mi West 4.6 mph - N/A   Clear
10:55 AM 59.0 °F - 35.6 °F 42% 29.85 in 7.0 mi NW 9.2 mph - N/A   Clear
11:15 AM 59.0 °F - 35.6 °F 42% 29.85 in 7.0 mi NW 9.2 mph - N/A   Clear
11:35 AM 59.0 °F - 33.8 °F 39% 29.85 in 5.0 mi NW 6.9 mph - N/A   Haze
11:55 AM 59.0 °F - 33.8 °F 39% 29.84 in 7.0 mi NW 9.2 mph - N/A   Clear
12:15 PM 59.0 °F - 33.8 °F 39% 29.84 in 5.0 mi WNW 12.7 mph - N/A   Haze
12:35 PM 59.0 °F - 32.0 °F 36% 29.84 in 4.0 mi NW 10.4 mph - N/A   Haze
12:55 PM 59.0 °F - 32.0 °F 36% 29.84 in 4.0 mi NW 10.4 mph - N/A   Haze
1:15 PM 59.0 °F - 32.0 °F 36% 29.84 in 4.0 mi NW 9.2 mph - N/A   Haze
1:55 PM 60.8 °F - 30.2 °F 31% 29.81 in 4.0 mi Calm Calm - N/A   Haze
2:15 PM 62.6 °F - 28.4 °F 27% 29.81 in 5.0 mi WSW 5.8 mph - N/A   Haze
2:35 PM 59.0 °F - 28.4 °F 31% 29.81 in 3.0 mi NW 19.6 mph 23.0 mph N/A   Haze
2:55 PM 57.2 °F - 26.6 °F 31% 29.83 in 3.0 mi NW 17.3 mph 21.9 mph N/A   Haze
3:15 PM 57.2 °F - 26.6 °F 31% 29.82 in 3.0 mi NW 5.8 mph - N/A   Haze
3:35 PM 59.0 °F - 26.6 °F 29% 29.81 in 4.0 mi Calm Calm - N/A   Haze
3:55 PM 60.8 °F - 24.8 °F 25% 29.82 in 4.0 mi WNW 6.9 mph - N/A   Haze
4:15 PM 57.2 °F - 26.6 °F 31% 29.82 in 3.0 mi WNW 10.4 mph - N/A   Haze
4:55 PM 55.4 °F - 24.8 °F 31% 29.84 in 4.0 mi WNW 10.4 mph - N/A   Haze
5:15 PM 51.8 °F - 24.8 °F 35% 29.86 in 4.0 mi NW 16.1 mph 21.9 mph N/A   Haze
5:35 PM 50.0 °F - 24.8 °F 37% 29.89 in 4.0 mi WNW 11.5 mph - N/A   Haze
5:55 PM 48.2 °F - 24.8 °F 40% 29.91 in 4.0 mi WNW 10.4 mph - N/A   Haze
6:15 PM 48.2 °F - 24.8 °F 40% 29.93 in 4.0 mi NW 8.1 mph - N/A   Haze
6:35 PM 48.2 °F - 24.8 °F 40% 29.94 in 5.0 mi WNW 6.9 mph - N/A   Haze
6:55 PM 48.2 °F - 24.8 °F 40% 29.95 in 6.0 mi West 4.6 mph - N/A   Haze
7:15 PM 48.2 °F - 26.6 °F 43% 29.95 in 6.0 mi SW 8.1 mph - N/A   Haze
7:35 PM 46.4 °F 44.3 °F 26.6 °F 46% 29.94 in 6.0 mi SW 4.6 mph - N/A   Haze
7:55 PM 44.6 °F 42.2 °F 24.8 °F 46% 29.96 in 6.0 mi NNE 4.6 mph - N/A   Haze
8:15 PM 44.6 °F 41.4 °F 24.8 °F 46% 29.96 in 6.0 mi NNE 5.8 mph - N/A   Haze
8:35 PM 42.8 °F 38.6 °F 24.8 °F 49% 29.97 in 6.0 mi NNE 6.9 mph - N/A   Haze
8:55 PM 41.0 °F 37.1 °F 24.8 °F 53% 29.96 in 6.0 mi SSE 5.8 mph - N/A   Haze
9:15 PM 39.2 °F 33.6 °F 24.8 °F 56% 29.97 in 7.0 mi SE 8.1 mph - N/A   Partly Cloudy
9:35 PM 39.2 °F 33.0 °F 23.0 °F 52% 29.97 in 7.0 mi SE 9.2 mph - N/A   Clear
9:55 PM 39.2 °F 32.0 °F 21.2 °F 49% 29.98 in 7.0 mi ESE 11.5 mph - N/A   Clear
10:15 PM 41.0 °F 33.9 °F 17.6 °F 39% 29.98 in 9.0 mi SE 12.7 mph - N/A   Clear
10:35 PM 44.6 °F 37.8 °F 8.6 °F 23% 29.97 in 10.0 mi East 15.0 mph - N/A   Clear
10:55 PM 46.4 °F 39.5 °F 5.0 °F 18% 29.98 in 10.0 mi ENE 17.3 mph 25.3 mph N/A   Clear
11:15 PM 46.4 °F 40.7 °F 3.2 °F 17% 29.99 in 10.0 mi East 12.7 mph 21.9 mph N/A   Clear
11:35 PM 46.4 °F 40.1 °F 1.4 °F 16% 30.00 in 10.0 mi ESE 15.0 mph 23.0 mph N/A   Clear
11:55 PM 44.6 °F 38.4 °F 3.2 °F 18% 30.01 in 10.0 mi East 12.7 mph 19.6 mph N/A   Clear